QPF
0.00 0.00 0.00 0.00 0.00 0.00 0.00 0.00 0.00 0.00 0.00 0.00 0.00 0.00 0.00 0.00 0.00 0.00 0.00 0.00 0.00 0.00 0.00 0.00 0.00 0.00 0.00 0.00 0.00 0.00 0.00 0.01 0.00 0.00 0.00 0.00 0.00 0.00 0.00 0.00 0.00 0.00 0.00 0.00
0.00 0.00 0.00 0.00 0.00 0.00 0.00 0.00 0.00 0.00 0.00 0.00 0.00 0.00 0.00 0.00 0.00 0.00 0.00 0.00 0.00 0.00 0.00 0.00 0.00 0.00 0.00 0.00 0.00 0.00 0.00 0.01 0.00 0.00 0.00 0.00 0.00 0.00 0.00 0.00 0.00 0.00 0.00 0.00
0.00 0.00 0.00 0.00 0.00 0.00 0.00 0.00 0.00 0.00 0.00 0.00 0.00 0.00 0.00 0.00 0.00 0.00 0.00 0.00 0.00 0.00 0.00 0.00 0.00 0.00 0.00 0.00 0.00 0.00 0.00 0.00 0.00 0.00 0.00 0.00 0.00 0.00 0.01 0.01 0.00 0.00 0.00 0.00
0.00 0.00 0.00 0.00 0.00 0.00 0.00 0.00 0.00 0.00 0.00 0.00 0.00 0.00 0.00 0.00 0.00 0.00 0.00 0.00 0.00 0.00 0.00 0.00 0.00 0.00 0.00 0.00 0.00 0.00 0.00 0.00 0.00 0.00 0.00 0.00 0.00 0.00 0.00 0.00 0.00 0.00 0.00 0.00
0.00 0.00 0.00 0.00 0.00 0.00 0.00 0.00 0.00 0.00 0.00 0.00 0.00 0.00 0.00 0.00 0.00 0.00 0.00 0.00 0.00 0.00 0.00 0.00 0.00 0.00 0.00 0.00 0.00 0.00 0.00 0.00 0.00 0.00 0.00 0.00 0.00 0.00 0.00 0.00 0.00 0.00 0.00 0.00
0.00 0.00 0.00 0.00 0.00 0.00 0.00 0.00 0.00 0.00 0.00 0.00 0.00 0.00 0.00 0.00 0.00 0.00 0.00 0.00 0.00 0.00 0.00 0.00 0.00 0.00 0.00 0.00 0.00 0.00 0.00 0.00 0.00 0.00 0.00 0.00 0.00 0.00 0.00 0.00 0.00 0.00 0.00 0.00
0.00 0.00 0.00 0.00 0.00 0.00 0.00 0.00 0.00 0.00 0.00 0.00 0.00 0.00 0.00 0.00 0.00 0.00 0.00 0.00 0.00 0.00 0.00 0.00 0.00 0.00 0.00 0.00 0.00 0.00 0.00 0.00 0.00 0.00 0.00 0.00 0.00 0.00 0.00 0.00 0.00 0.00 0.00 0.00
0.00 0.00 0.00 0.00 0.00 0.00 0.00 0.00 0.00 0.00 0.00 0.00 0.00 0.00 0.00 0.00 0.00 0.00 0.00 0.00 0.00 0.00 0.00 0.00 0.00 0.00 0.00 0.00 0.00 0.00 0.00 0.00 0.00 0.00 0.00 0.00 0.00 0.00 0.00 0.00 0.00 0.00 0.00 0.00
0.00 0.00 0.00 0.00 0.00 0.00 0.00 0.00 0.00 0.00 0.00 0.00 0.00 0.00 0.00 0.00 0.00 0.00 0.00 0.00 0.00 0.00 0.00 0.00 0.00 0.00 0.00 0.00 0.00 0.00 0.00 0.00 0.00 0.00 0.00 0.00 0.00 0.00 0.00 0.00 0.00 0.00 0.00 0.00
0.00 0.00 0.00 0.00 0.00 0.00 0.00 0.00 0.00 0.00 0.00 0.00 0.01 0.00 0.00 0.00 0.00 0.00 0.00 0.00 0.00 0.00 0.00 0.00 0.00 0.00 0.00 0.00 0.00 0.00 0.00 0.00 0.00 0.00 0.00 0.00 0.00 0.00 0.00 0.00 0.00 0.00 0.00 0.00
0.00 0.00 0.00 0.00 0.00 0.00 0.00 0.00 0.00 0.00 0.00 0.00 0.00 0.00 0.00 0.00 0.00 0.00 0.00 0.00 0.00 0.00 0.00 0.00 0.00 0.00 0.00 0.00 0.00 0.00 0.00 0.00 0.00 0.00 0.00 0.00 0.00 0.00 0.00 0.00 0.00 0.00 0.00 0.00
0.00 0.00 0.00 0.00 0.00 0.00 0.00 0.00 0.00 0.00 0.00 0.00 0.00 0.00 0.00 0.00 0.00 0.00 0.00 0.00 0.00 0.00 0.00 0.00 0.00 0.00 0.00 0.00 0.00 0.00 0.00 0.00 0.00 0.00 0.00 0.00 0.00 0.00 0.00 0.00 0.00 0.00 0.00 0.00
0.00 0.00 0.00 0.01 0.00 0.00 0.00 0.00 0.00 0.00 0.00 0.00 0.01 0.01 0.00 0.00 0.00 0.00 0.00 0.00 0.00 0.00 0.00 0.00 0.00 0.00 0.00 0.00 0.00 0.00 0.00 0.00 0.00 0.00 0.00 0.00 0.00 0.00 0.00 0.00 0.00 0.00 0.00 0.00
0.00 0.00 0.03 0.03 0.01 0.00 0.00 0.00 0.00 0.00 0.00 0.00 0.00 0.00 0.00 0.00 0.00 0.00 0.00 0.00 0.00 0.00 0.00 0.00 0.00 0.00 0.00 0.00 0.00 0.00 0.00 0.00 0.00 0.00 0.00 0.00 0.00 0.00 0.00 0.00 0.00 0.00 0.00 0.00
0.00 0.00 0.01 0.02 0.01 0.00 0.00 0.01 0.00 0.00 0.00 0.00 0.00 0.00 0.00 0.00 0.00 0.00 0.00 0.00 0.00 0.00 0.00 0.00 0.00 0.00 0.00 0.00 0.00 0.00 0.00 0.00 0.00 0.00 0.00 0.00 0.00 0.00 0.00 0.00 0.00 0.00 0.00 0.00
0.00 0.00 0.00 0.00 0.00 0.00 0.00 0.00 0.00 0.00 0.00 0.00 0.00 0.00 0.00 0.00 0.00 0.00 0.00 0.00 0.00 0.00 0.00 0.00 0.00 0.00 0.00 0.00 0.00 0.00 0.00 0.00 0.00 0.00 0.00 0.00 0.00 0.00 0.00 0.00 0.00 0.00 0.00 0.00
0.00 0.00 0.00 0.00 0.00 0.00 0.00 0.00 0.00 0.00 0.00 0.00 0.00 0.00 0.00 0.00 0.00 0.00 0.00 0.00 0.00 0.00 0.00 0.00 0.00 0.00 0.00 0.00 0.00 0.00 0.00 0.00 0.00 0.00 0.00 0.00 0.00 0.00 0.00 0.00 0.00 0.00 0.00 0.00
0.00 0.00 0.00 0.00 0.00 0.00 0.00 0.00 0.00 0.00 0.00 0.00 0.00 0.00 0.00 0.00 0.00 0.00 0.00 0.00 0.00 0.00 0.00 0.00 0.00 0.00 0.00 0.00 0.00 0.00 0.00 0.00 0.00 0.00 0.00 0.00 0.00 0.00 0.00 0.00 0.00 0.00 0.00 0.00
0.00 0.00 0.00 0.00 0.00 0.00 0.00 0.00 0.00 0.00 0.00 0.00 0.00 0.00 0.00 0.00 0.00 0.00 0.00 0.00 0.00 0.00 0.00 0.00 0.00 0.00 0.00 0.00 0.00 0.00 0.00 0.00 0.00 0.00 0.00 0.00 0.00 0.00 0.00 0.00 0.00 0.00 0.00 0.00
0.00 0.00 0.01 0.01 0.00 0.00 0.00 0.00 0.00 0.00 0.00 0.00 0.00 0.00 0.00 0.00 0.00 0.00 0.00 0.00 0.00 0.00 0.00 0.00 0.00 0.00 0.00 0.00 0.00 0.00 0.00 0.00 0.00 0.00 0.00 0.00 0.00 0.00 0.00 0.00 0.00 0.00 0.00 0.00
0.01 0.02 0.01 0.01 0.01 0.00 0.00 0.00 0.00 0.01 0.01 0.00 0.00 0.00 0.00 0.00 0.00 0.00 0.00 0.00 0.00 0.00 0.00 0.00 0.00 0.00 0.00 0.00 0.00 0.00 0.00 0.00 0.00 0.00 0.00 0.00 0.00 0.00 0.00 0.00 0.00 0.00 0.00 0.00
0.02 0.03 0.02 0.01 0.03 0.01 0.00 0.01 0.04 0.07 0.01 0.00 0.00 0.00 0.00 0.00 0.00 0.00 0.00 0.00 0.00 0.00 0.00 0.00 0.00 0.00 0.00 0.00 0.00 0.00 0.00 0.00 0.00 0.00 0.00 0.00 0.00 0.00 0.00 0.00 0.01 0.00 0.00 0.00
0.03 0.01 0.00 0.00 0.00 0.00 0.00 0.02 0.01 0.00 0.00 0.00 0.00 0.00 0.00 0.00 0.00 0.00 0.00 0.00 0.00 0.00 0.00 0.00 0.00 0.00 0.00 0.00 0.00 0.00 0.00 0.00 0.00 0.00 0.00 0.00 0.00 0.01 0.03 0.04 0.02 0.01 0.00 0.01
0.02 0.01 0.02 0.04 0.02 0.02 0.03 0.01 0.00 0.00 0.00 0.00 0.00 0.00 0.00 0.00 0.00 0.00 0.00 0.00 0.00 0.00 0.00 0.00 0.00 0.00 0.00 0.00 0.00 0.00 0.00 0.00 0.00 0.00 0.00 0.00 0.00 0.01 0.02 0.03 0.02 0.01 0.00 0.01
0.01 0.01 0.01 0.01 0.01 0.02 0.01 0.00 0.00 0.00 0.00 0.00 0.00 0.00 0.00 0.00 0.00 0.00 0.00 0.00 0.00 0.00 0.00 0.00 0.00 0.00 0.00 0.00 0.00 0.00 0.00 0.00 0.00 0.00 0.00 0.00 0.00 0.00 0.00 0.00 0.00 0.00 0.01 0.01
0.01 0.00 0.02 0.04 0.02 0.03 0.01 0.00 0.00 0.00 0.00 0.00 0.00 0.00 0.00 0.00 0.00 0.00 0.00 0.00 0.00 0.00 0.00 0.00 0.00 0.00 0.00 0.00 0.00 0.00 0.00 0.00 0.01 0.00 0.00 0.01 0.01 0.01 0.00 0.00 0.00 0.00 0.00 0.00
MSLP
1004.84 1005.08 1003.29 1003.67 1003.48 1003.29 1002.29 1001.20 999.84 998.27 997.16 996.59 996.42 996.56 996.63 996.56 996.40 996.53 996.90 997.27 997.82 998.64 999.61 1000.88 1002.18 1003.08 1004.09 1005.22 1006.49 1007.53 1008.57 1009.34 1010.00 1010.36 1010.79 1011.42 1012.06 1012.70 1013.45 1013.82 1014.23 1014.42 1014.69 1015.13
1004.57 1003.61 1004.29 1004.55 1003.95 1003.31 1002.42 1001.68 1000.20 998.79 997.48 996.95 996.72 996.31 996.26 996.04 995.90 995.75 995.89 996.15 996.74 997.56 998.66 999.97 1001.72 1003.01 1003.95 1004.97 1006.15 1007.31 1008.17 1009.02 1009.81 1010.19 1010.69 1011.16 1011.83 1012.48 1012.98 1013.62 1014.17 1014.38 1014.46 1014.82
1004.36 1004.07 1004.70 1005.17 1004.76 1003.55 1002.24 1001.44 1000.47 999.38 998.26 997.34 996.92 996.63 996.31 995.87 995.39 995.05 995.12 995.45 995.73 996.48 997.61 999.16 1000.91 1002.61 1003.80 1004.71 1005.76 1006.72 1007.67 1008.52 1009.34 1009.89 1010.50 1011.18 1011.95 1012.66 1013.06 1013.71 1014.14 1014.27 1014.36 1014.55
1004.13 1004.85 1005.19 1005.64 1006.11 1005.54 1003.16 1001.97 1000.95 999.95 999.24 998.28 997.33 996.04 995.36 994.66 994.12 994.04 994.23 994.81 995.34 995.84 996.68 998.11 999.92 1001.73 1003.18 1004.20 1005.31 1006.26 1007.23 1007.95 1008.92 1009.55 1010.07 1010.60 1011.09 1011.73 1012.37 1012.96 1013.81 1014.33 1014.40 1014.54
1004.11 1005.13 1005.52 1005.87 1006.35 1006.00 1004.01 1003.05 1002.61 1002.02 1000.05 999.20 997.72 996.62 995.23 994.39 993.80 993.03 993.30 993.84 994.48 995.10 995.97 997.18 998.83 1000.57 1002.30 1003.56 1004.72 1005.73 1006.65 1007.61 1008.32 1009.15 1009.50 1010.12 1010.78 1011.36 1011.90 1012.71 1013.35 1013.96 1014.54 1014.71
1004.03 1004.30 1005.37 1006.11 1006.62 1005.51 1005.52 1003.78 1003.75 1002.66 1000.86 998.78 997.96 997.03 994.88 993.98 993.22 992.40 992.42 992.96 993.50 994.26 995.33 996.48 997.93 999.82 1001.45 1002.80 1004.16 1005.29 1006.19 1007.00 1007.84 1008.48 1009.08 1009.51 1010.02 1010.71 1011.39 1012.22 1012.95 1013.50 1014.00 1014.41
1004.48 1004.27 1005.00 1006.12 1006.62 1005.97 1004.80 1004.33 1004.38 1003.22 1000.68 998.47 998.05 996.55 994.32 993.30 992.52 991.59 992.46 992.87 993.14 993.77 994.83 995.97 997.40 999.13 1000.63 1001.98 1003.33 1004.42 1005.55 1006.32 1007.14 1007.98 1008.71 1009.24 1009.60 1010.09 1010.75 1011.32 1011.92 1012.64 1013.42 1013.93
1003.82 1003.78 1003.97 1004.91 1005.26 1005.24 1004.04 1003.89 1004.40 1002.68 1001.35 999.46 997.87 995.05 993.13 992.63 992.27 992.41 992.64 992.99 993.23 993.60 994.77 995.72 996.77 998.23 999.83 1001.20 1002.60 1003.68 1004.58 1005.51 1006.22 1007.06 1007.82 1008.57 1009.01 1009.63 1010.12 1010.64 1011.18 1011.70 1012.21 1012.72
1003.35 1002.75 1002.50 1003.06 1003.83 1004.81 1004.45 1003.37 1003.73 1003.34 1003.02 1001.39 997.35 994.66 993.02 992.11 992.28 992.57 993.00 993.23 993.44 993.80 994.58 995.35 996.15 997.26 998.70 1000.24 1001.60 1002.80 1003.59 1004.51 1005.18 1006.11 1006.91 1007.57 1008.10 1008.65 1009.33 1009.89 1010.41 1010.93 1011.46 1011.91
1003.70 1003.09 1001.90 1002.11 1002.77 1003.71 1004.18 1003.10 1003.34 1004.22 1003.47 1001.49 998.02 995.20 993.47 993.04 993.09 993.21 993.30 993.34 993.62 993.91 994.20 994.93 995.49 996.48 997.70 999.23 1000.66 1002.05 1003.00 1003.53 1004.04 1005.23 1005.98 1006.46 1007.03 1007.76 1008.37 1008.89 1009.39 1009.90 1010.52 1011.00
1003.34 1003.46 1002.29 1001.55 1002.26 1002.39 1002.97 1002.88 1003.92 1004.17 1003.63 1001.68 998.99 996.64 994.72 994.19 993.77 993.92 993.96 993.90 994.28 994.26 994.65 995.13 995.43 995.91 997.16 998.40 999.81 1001.06 1002.07 1002.65 1003.19 1003.86 1004.88 1005.70 1006.33 1006.80 1007.41 1007.79 1008.17 1008.73 1009.28 1009.96
1003.87 1003.03 1002.41 1001.84 1001.73 1001.99 1002.18 1002.11 1003.02 1003.74 1003.30 1001.97 1000.63 997.58 995.37 995.01 995.14 995.06 994.97 994.95 995.15 995.10 995.42 994.99 995.66 996.01 996.73 997.80 999.09 1000.11 1001.17 1001.81 1002.14 1002.85 1003.69 1004.50 1005.23 1005.79 1006.27 1006.62 1007.10 1007.64 1008.22 1008.80
1004.92 1003.50 1002.91 1002.15 1002.24 1000.99 1001.62 1002.51 1002.94 1002.81 1003.38 1002.85 1001.78 998.82 997.58 996.91 996.20 995.89 995.84 995.82 995.97 996.14 996.34 996.20 996.22 996.30 996.58 997.23 998.13 999.17 1000.03 1000.89 1001.71 1002.14 1002.77 1003.45 1003.97 1004.45 1004.87 1005.44 1006.07 1006.71 1007.23 1007.72
1005.57 1004.82 1004.03 1003.59 1003.36 1002.93 1002.10 1001.67 1001.99 1001.93 1002.25 1001.93 1001.50 1000.11 999.44 999.14 998.00 996.81 996.34 996.58 996.62 996.76 996.74 996.83 996.82 996.65 996.58 996.62 997.40 998.24 999.05 999.97 1000.84 1001.47 1001.83 1002.37 1002.83 1003.23 1003.81 1004.47 1005.00 1005.48 1006.00 1006.54
1005.23 1004.84 1004.46 1003.84 1003.46 1002.93 1002.86 1002.21 1001.78 1001.98 1001.97 1001.26 1000.40 1000.12 999.66 999.21 998.35 997.15 996.73 997.01 997.13 997.55 997.78 998.11 998.25 997.97 997.62 997.56 997.14 997.50 998.12 999.02 999.89 1000.55 1000.97 1001.05 1001.95 1002.72 1003.21 1003.52 1003.90 1004.45 1004.92 1005.34
1004.67 1004.59 1004.40 1003.83 1003.15 1003.01 1001.77 1001.33 1000.57 1000.16 1000.44 999.87 999.84 999.83 998.94 999.24 997.51 997.47 997.64 997.88 998.21 998.89 999.28 999.35 999.31 999.12 998.76 998.50 998.37 997.97 997.55 998.03 998.92 999.52 999.74 1000.30 1001.01 1001.67 1002.13 1002.64 1003.05 1003.59 1003.95 1004.18
1005.23 1004.87 1004.44 1003.72 1003.13 1002.58 1001.15 1000.09 999.85 999.41 999.06 998.93 998.58 998.11 998.17 998.06 997.85 998.01 998.23 998.44 999.17 999.82 1000.13 1000.22 1000.22 1000.23 1000.11 999.87 999.46 998.55 998.33 998.01 997.71 998.19 998.69 999.34 999.88 1000.37 1000.76 1001.41 1002.05 1002.22 1002.57 1003.34
1005.43 1005.19 1004.89 1004.13 1003.38 1002.16 1000.23 999.22 998.88 998.76 998.74 998.57 998.25 998.04 998.91 998.45 998.70 998.87 998.90 999.48 1000.09 1000.46 1000.51 1000.75 1001.01 1001.28 1001.43 1001.23 1000.88 1000.35 999.40 998.10 997.95 997.58 997.56 998.12 998.75 999.18 999.73 1000.38 1000.72 1001.08 1001.60 1002.08
1005.41 1005.57 1005.20 1004.23 1003.23 1001.75 999.88 998.97 998.81 998.74 998.70 998.46 998.14 998.74 999.17 999.49 999.63 999.93 1000.01 1000.24 1000.64 1000.87 1000.93 1001.51 1002.11 1002.97 1003.39 1003.66 1003.27 1002.14 1000.92 999.98 998.96 998.28 997.38 997.10 997.62 998.38 999.06 999.46 999.78 1000.24 1000.97 1001.44
1004.65 1005.08 1005.50 1004.50 1003.43 1001.60 1000.14 999.27 998.87 998.73 999.11 998.99 999.18 999.76 1000.16 1000.31 1000.35 1000.95 1001.14 1000.95 1000.84 1001.19 1002.02 1002.83 1003.53 1004.45 1005.05 1005.30 1004.84 1003.76 1002.64 1001.89 1001.35 1000.60 999.20 997.77 996.83 997.08 997.76 998.21 998.88 999.69 1000.33 1000.90
1003.83 1004.59 1004.74 1004.66 1003.66 1001.65 1000.31 1000.18 999.70 999.91 1001.11 1000.87 1000.92 1001.38 1001.48 1001.67 1002.29 1002.01 1001.70 1001.41 1001.44 1002.11 1003.01 1003.95 1004.78 1005.71 1006.40 1006.32 1005.77 1004.95 1004.50 1004.04 1003.33 1001.99 1000.42 999.47 998.21 996.82 996.95 997.47 998.25 998.84 999.85 1000.81
1003.26 1004.19 1004.31 1004.36 1003.50 1002.29 1000.88 1000.88 1001.88 1001.96 1002.41 1002.40 1002.43 1002.79 1002.92 1003.22 1003.42 1003.35 1003.00 1002.88 1003.21 1003.71 1004.25 1005.26 1006.04 1006.94 1007.53 1007.34 1006.66 1005.88 1005.47 1005.10 1004.17 1003.14 1002.21 1001.50 1000.72 999.73 998.11 997.43 998.45 999.08 999.86 1001.65
1003.64 1003.03 1003.16 1003.16 1002.61 1001.75 1001.12 1001.84 1002.35 1002.73 1003.01 1003.26 1003.75 1004.09 1004.48 1004.94 1005.00 1004.69 1004.66 1004.47 1004.86 1005.37 1006.47 1007.20 1007.57 1007.99 1008.26 1008.18 1008.03 1007.38 1006.66 1005.67 1004.87 1004.36 1003.89 1003.53 1002.86 1002.29 1001.28 1000.25 1000.03 1000.71 1001.13 1002.44
1002.99 1003.36 1003.40 1003.54 1002.67 1002.54 1003.84 1003.17 1003.68 1003.75 1004.06 1004.51 1005.30 1005.82 1006.32 1006.56 1006.50 1006.59 1006.30 1007.04 1007.41 1007.88 1008.66 1009.17 1009.31 1009.58 1009.54 1009.37 1009.11 1008.80 1007.85 1006.55 1005.88 1005.17 1005.22 1005.15 1004.89 1004.48 1004.08 1003.08 1002.73 1002.35 1002.72 1003.32
1003.29 1003.97 1004.20 1004.72 1004.60 1004.50 1005.31 1005.32 1005.46 1005.18 1005.84 1006.00 1006.44 1006.98 1007.60 1007.90 1008.37 1008.71 1008.64 1009.43 1009.77 1010.12 1010.60 1010.82 1011.13 1011.09 1010.97 1010.64 1010.05 1009.52 1008.61 1007.67 1006.76 1006.52 1006.42 1006.29 1006.55 1006.52 1006.44 1006.31 1005.15 1004.77 1004.64 1004.28
1004.17 1005.00 1005.06 1005.22 1005.22 1005.45 1006.48 1006.92 1006.60 1006.82 1007.37 1007.45 1007.38 1007.99 1008.83 1009.76 1010.51 1011.04 1011.55 1012.18 1012.39 1012.59 1012.81 1012.76 1012.85 1012.73 1012.59 1012.15 1011.35 1010.58 1009.55 1008.69 1007.74 1007.48 1007.51 1007.79 1007.72 1008.24 1008.16 1008.53 1007.68 1007.41 1006.82 1006.54
Thickness
5622 5609 5626 5632 5642 5648 5659 5660 5667 5695 5719 5714 5708 5705 5716 5725 5727 5722 5721 5722 5719 5716 5716 5709 5700 5695 5688 5680 5670 5661 5650 5643 5636 5634 5628 5622 5618 5615 5610 5608 5606 5607 5607 5606
5606 5613 5625 5628 5630 5636 5646 5645 5658 5684 5706 5703 5701 5699 5714 5721 5723 5729 5727 5724 5724 5720 5717 5710 5698 5691 5685 5678 5670 5660 5653 5645 5637 5633 5629 5623 5618 5614 5613 5610 5606 5607 5608 5606
5595 5611 5610 5601 5605 5620 5638 5640 5654 5664 5687 5699 5694 5684 5697 5716 5725 5731 5733 5734 5734 5724 5718 5711 5698 5688 5682 5677 5669 5663 5655 5647 5639 5635 5628 5622 5616 5611 5610 5607 5605 5605 5606 5605
5593 5599 5591 5585 5577 5591 5607 5645 5655 5661 5659 5649 5689 5663 5697 5715 5720 5725 5730 5729 5730 5731 5725 5717 5703 5691 5681 5676 5671 5665 5656 5649 5641 5636 5630 5625 5622 5616 5613 5611 5604 5601 5601 5602
5582 5575 5572 5570 5573 5584 5601 5628 5626 5629 5647 5652 5665 5661 5688 5712 5708 5724 5728 5729 5731 5733 5729 5720 5709 5697 5686 5679 5672 5666 5658 5650 5644 5636 5633 5628 5623 5619 5615 5608 5603 5598 5596 5596
5582 5585 5575 5566 5568 5585 5589 5609 5604 5620 5636 5630 5655 5657 5676 5696 5711 5727 5736 5734 5734 5732 5730 5725 5715 5702 5689 5681 5673 5666 5659 5653 5646 5640 5635 5632 5629 5623 5618 5610 5602 5597 5596 5596
5569 5571 5570 5559 5553 5568 5585 5588 5566 5583 5610 5623 5660 5659 5683 5709 5724 5734 5724 5729 5733 5732 5727 5722 5712 5699 5691 5683 5675 5671 5662 5656 5651 5643 5636 5632 5631 5628 5621 5617 5612 5605 5599 5596
5560 5551 5568 5566 5560 5563 5581 5586 5568 5588 5611 5626 5663 5658 5688 5716 5726 5727 5726 5729 5730 5727 5722 5718 5714 5704 5694 5686 5678 5672 5666 5660 5657 5649 5644 5638 5634 5628 5625 5620 5616 5612 5607 5603
5562 5563 5580 5578 5575 5567 5566 5578 5598 5588 5590 5589 5649 5684 5704 5718 5715 5716 5714 5719 5720 5719 5718 5716 5715 5708 5699 5689 5682 5675 5672 5666 5662 5655 5649 5644 5640 5635 5629 5625 5621 5617 5613 5609
5564 5555 5584 5582 5579 5572 5567 5595 5582 5570 5573 5582 5634 5660 5675 5689 5695 5702 5705 5709 5714 5717 5716 5710 5714 5710 5703 5694 5685 5677 5672 5670 5669 5659 5653 5650 5645 5639 5635 5631 5627 5623 5618 5614
5569 5560 5571 5585 5569 5568 5568 5574 5569 5575 5582 5592 5617 5640 5680 5679 5689 5687 5692 5697 5701 5705 5705 5706 5709 5708 5703 5696 5687 5678 5673 5671 5670 5667 5659 5652 5647 5644 5639 5635 5633 5629 5625 5620
5559 5568 5564 5572 5580 5580 5578 5584 5584 5564 5578 5602 5602 5628 5676 5677 5676 5676 5680 5688 5689 5693 5693 5701 5702 5702 5699 5693 5686 5680 5674 5672 5672 5668 5663 5657 5653 5648 5644 5641 5638 5634 5629 5625
5545 5560 5556 5568 5566 5588 5574 5572 5576 5591 5582 5569 5577 5622 5648 5652 5655 5668 5668 5673 5677 5680 5681 5688 5687 5690 5691 5690 5686 5682 5676 5672 5668 5666 5663 5659 5657 5654 5651 5646 5641 5637 5633 5629
5536 5542 5550 5546 5545 5555 5565 5579 5582 5588 5579 5586 5580 5600 5616 5618 5628 5646 5658 5661 5666 5667 5671 5672 5676 5678 5684 5687 5685 5681 5678 5673 5667 5665 5664 5660 5659 5657 5653 5648 5644 5642 5637 5633
5536 5533 5544 5554 5557 5559 5549 5562 5575 5567 5575 5580 5597 5598 5607 5614 5627 5641 5650 5651 5652 5651 5651 5653 5654 5659 5666 5671 5679 5679 5677 5673 5668 5663 5662 5664 5658 5652 5650 5648 5647 5643 5638 5635
5536 5533 5541 5545 5561 5553 5565 5573 5583 5590 5582 5596 5596 5590 5613 5611 5637 5632 5632 5638 5633 5633 5633 5636 5641 5646 5652 5655 5660 5669 5674 5672 5667 5663 5664 5662 5657 5653 5650 5647 5644 5641 5639 5637
5517 5525 5534 5538 5554 5553 5557 5577 5581 5589 5595 5596 5590 5610 5613 5616 5620 5618 5625 5625 5621 5619 5619 5621 5624 5628 5634 5639 5645 5655 5659 5664 5666 5665 5665 5660 5658 5654 5653 5648 5643 5643 5642 5635
5507 5517 5525 5529 5538 5530 5570 5589 5590 5587 5590 5597 5602 5608 5601 5609 5609 5614 5615 5605 5608 5608 5611 5613 5615 5616 5619 5622 5624 5631 5643 5656 5657 5662 5663 5661 5656 5654 5652 5646 5644 5643 5640 5636
5504 5505 5509 5519 5530 5548 5568 5578 5577 5576 5580 5594 5597 5595 5591 5592 5595 5594 5596 5596 5597 5598 5601 5600 5601 5595 5593 5591 5595 5607 5618 5627 5639 5646 5656 5659 5655 5647 5643 5640 5642 5639 5633 5630
5504 5506 5499 5513 5515 5525 5556 5575 5578 5584 5566 5581 5581 5577 5575 5577 5571 5570 5580 5586 5587 5587 5584 5581 5579 5571 5566 5565 5570 5582 5596 5601 5605 5612 5628 5644 5653 5651 5644 5641 5637 5633 5629 5625
5497 5495 5494 5498 5504 5531 5557 5556 5567 5548 5542 5556 5559 5556 5558 5558 5556 5565 5569 5574 5573 5571 5566 5561 5557 5549 5542 5545 5551 5560 5565 5567 5575 5589 5606 5613 5626 5641 5641 5637 5632 5627 5621 5608
5501 5489 5490 5494 5498 5506 5547 5548 5530 5534 5533 5537 5539 5539 5542 5541 5542 5546 5552 5554 5553 5551 5549 5543 5537 5528 5521 5524 5532 5540 5543 5546 5556 5565 5575 5580 5586 5596 5616 5624 5612 5607 5600 5585
5487 5507 5505 5510 5515 5536 5543 5532 5532 5532 5529 5527 5526 5526 5525 5523 5525 5531 5533 5538 5535 5532 5523 5517 5515 5510 5506 5508 5508 5514 5519 5528 5535 5539 5543 5546 5552 5558 5570 5580 5582 5577 5574 5564
5504 5504 5503 5504 5521 5525 5508 5514 5516 5517 5517 5516 5512 5508 5506 5505 5509 5511 5516 5509 5505 5503 5494 5489 5490 5485 5486 5486 5488 5488 5495 5508 5513 5517 5516 5518 5520 5523 5528 5540 5544 5548 5546 5541
5502 5494 5495 5487 5491 5499 5490 5489 5495 5502 5498 5498 5497 5495 5490 5489 5485 5483 5490 5478 5476 5474 5468 5466 5461 5462 5462 5463 5467 5471 5477 5484 5492 5492 5492 5493 5492 5492 5494 5495 5508 5512 5515 5521
5489 5478 5478 5483 5488 5485 5472 5475 5478 5479 5476 5478 5484 5481 5473 5465 5457 5453 5449 5442 5441 5439 5437 5437 5435 5435 5434 5436 5441 5445 5454 5460 5468 5468 5467 5465 5467 5463 5466 5465 5472 5476 5482 5485